Location: Aytr�
(46.1357°N, 1.1145°W)
Time: 07:28:22
(UTC+00:00)

Cosmos 1378 - Pass Details

Date: 03 March 2021
Orbit: 489 x 501 km, 82.5° (Epoch: 18 April)

Event Time Altitude Azimuth Distance (km) Brightness Sun altitude
Rises 19:59:12 0° 353° (N) 2,603 7.0 -22.4°
Reaches altitude 10° 20:01:20 10° 356° (N) 1,713 6.0 -22.7°
Enters shadow 20:03:25 31° 5° (N) 906 4.4 -23.1°
